Location: Black Forest
(43.4794°N, 75.0081°W)
Time: 17:04:42
(UTC-04:00)

ISS - All Passes

Search period start: 22 June 2018 00:00
Search period end: 02 July 2018 00:00
Orbit: 402 x 408 km, 51.6° (Epoch: 23 June)

Date Brightness Start Highest point End Pass type
(mag) Time Alt. Az. Time Alt. Az. Time Alt. Az.
22 Jun - 09:04:06 10° SW 09:07:16 47° SE 09:10:28 10° ENE daylight
22 Jun - 10:40:51 10° W 10:43:52 32° NNW 10:46:53 10° NE daylight
22 Jun - 12:18:35 10° NW 12:21:04 19° N 12:23:33 10° NE daylight
22 Jun - 13:55:16 10° NW 13:58:16 31° NNE 14:01:15 10° E daylight
22 Jun - 15:31:41 10° WNW 15:34:53 49° SW 15:38:03 10° SE daylight
23 Jun - 08:12:34 10° SSW 08:15:21 26° SE 08:18:09 10° ENE daylight
23 Jun - 09:48:31 10° WSW 09:51:43 46° NNW 09:54:55 10° NE daylight
23 Jun - 11:26:14 10° WNW 11:28:46 20° N 11:31:19 10° NE daylight
23 Jun - 13:03:16 10° NW 13:06:03 24° NNE 13:08:49 10° ENE daylight
23 Jun - 14:39:34 10° WNW 14:42:52 90° W 14:46:09 10° ESE daylight
23 Jun - 16:17:36 10° WSW 16:18:54 12° SW 16:20:12 10° SSW daylight
24 Jun - 07:21:37 10° SSE 07:23:30 14° SE 07:25:23 10° E daylight
24 Jun - 08:56:18 10° WSW 08:59:36 77° NNW 09:02:54 10° NE daylight
24 Jun - 10:33:47 10° WNW 10:36:29 23° NNW 10:39:13 10° NE daylight
24 Jun - 12:11:11 10° NW 12:13:46 21° N 12:16:21 10° ENE daylight
24 Jun - 13:47:33 10° NW 13:50:47 53° NNE 13:54:00 10° ESE daylight
24 Jun - 15:24:28 10° W 15:27:04 21° SW 15:29:38 10° S daylight
25 Jun - 08:04:18 10° SW 08:07:33 60° SE 08:10:49 10° ENE daylight
25 Jun - 09:41:18 10° W 09:44:14 29° NNW 09:47:10 10° NE daylight
25 Jun - 11:18:58 10° NW 11:21:28 19° N 11:23:57 10° NE daylight
25 Jun - 12:55:33 10° NW 12:58:37 35° NNE 13:01:40 10° E daylight
25 Jun - 14:32:02 10° WNW 14:35:08 39° SW 14:38:13 10° SSE daylight
26 Jun - 07:12:35 10° SSW 07:15:34 32° SE 07:18:33 10° ENE daylight
26 Jun - 08:48:53 10° W 08:52:00 40° NNW 08:55:09 10° NE daylight
26 Jun - 10:26:37 10° NW 10:29:08 20° N 10:31:38 10° NE daylight
26 Jun - 12:03:31 10° NW 12:06:23 26° NNE 12:09:14 10° ENE daylight
26 Jun - 13:39:50 10° WNW 13:43:07 73° SW 13:46:23 10° SE daylight
27 Jun - 06:21:19 10° S 06:23:38 18° SE 06:25:58 10° E daylight
27 Jun - 07:56:34 10° WSW 07:59:50 63° NNW 08:03:07 10° NE daylight
27 Jun - 09:34:09 10° WNW 09:36:48 22° N 09:39:27 10° NE daylight
27 Jun - 11:11:26 10° NW 11:14:04 22° N 11:16:44 10° ENE daylight
27 Jun - 12:47:45 10° NW 12:51:01 65° NNE 12:54:17 10° ESE daylight
27 Jun - 14:24:56 10° W 14:27:12 17° SW 14:29:27 10° S daylight
28 Jun - 07:04:27 10° SW 07:07:44 75° SE 07:11:01 10° ENE daylight
28 Jun - 08:41:38 10° WNW 08:44:29 26° NNW 08:47:20 10° NE daylight
28 Jun - 10:19:13 10° NW 10:21:44 20° N 10:24:15 10° NE daylight
28 Jun - 11:55:41 10° NW 11:58:50 40° NNE 12:01:59 10° E daylight
28 Jun - 13:32:19 10° WNW 13:35:16 31° SW 13:38:13 10° SSE daylight
29 Jun - 06:12:34 10° SSW 06:15:41 40° SE 06:18:48 10° ENE daylight
29 Jun - 07:49:09 10° W 07:52:12 34° NNW 07:55:16 10° NE daylight
29 Jun - 09:26:53 10° NW 09:29:22 19° N 09:31:51 10° NE daylight
29 Jun - 11:03:38 10° NW 11:06:35 29° NNE 11:09:32 10° E daylight
29 Jun - 12:40:01 10° WNW 12:43:15 58° SW 12:46:29 10° SE daylight
30 Jun - 05:21:04 10° S 05:23:41 22° SE 05:26:19 10° E daylight
30 Jun - 06:56:45 10° WSW 06:59:58 52° NNW 07:03:13 10° NE daylight
30 Jun - 08:34:24 10° WNW 08:36:59 21° N 08:39:35 10° NE daylight
30 Jun - 10:11:33 10° NW 10:14:16 23° NNE 10:16:59 10° ENE daylight
30 Jun - 11:47:50 10° NW 11:51:09 79° NNE 11:54:25 10° ESE daylight
30 Jun - 13:25:26 10° W 13:27:13 14° SW 13:29:00 10° SSW daylight
01 Jul - 04:30:20 10° SSE 04:31:46 12° SE 04:33:11 10° ESE visible
01 Jul - 06:04:30 10° WSW 06:07:48 88° NW 06:11:06 10° ENE daylight
01 Jul - 07:41:51 10° WNW 07:44:38 24° NNW 07:47:24 10° NE daylight
01 Jul - 09:19:20 10° NW 09:21:54 20° N 09:24:27 10° ENE daylight
01 Jul - 10:55:44 10° NW 10:58:57 47° NNE 11:02:08 10° ESE daylight
01 Jul - 12:32:31 10° W 12:35:17 25° SW 12:38:02 10° SSE daylight
